COSMOS 1275 DEB, 12650

Orbit data source: Space-Track

COSMOS 1275 DEB, 12650 is space debris in LEO originally from a launch on Thu, 04 Jun 1981 UTC launched from the Plesetsk Missile And Space Complex (PKMTR). Debris objects in space refer to the collection of defunct objects orbiting the Earth. Examples of debris include non-operational satellites, rocket bodies, and fragments generated from explosions, collisions, or faulty payload assembly.

Loading next visibility...
Identifier
12650, 1981-053E
Orbit
LEO
Country
Flag of CISCIS
Related business
Manufacturer
Unknown
Mission
Spacecraft
Bus & Motor
Unknown
Mass
Unknown
Launch date (UTC)
1981-06-04 (45 years ago)
Launch vehicle
Unknown
Launch site
Plesetsk Missile And Space Complex (PKMTR)
Object type
Payload
Rocket body
Debris
Shape & HBR
Unknown shape, 0.3 m
Radar Cross Section
Medium (>0.1 m² and <1 m²)

Expand to show TLE details & history
Last TLE update: 7 hours ago

TLE from 7 hours ago
0 COSMOS 1275 DEB
1 12650U 81053E   26124.17064095  .00000541  00000-0  49169-3 0  9990
2 12650  82.9336 264.4495 0061911 309.5208 224.2477 13.80986222245163
Epoch: 2026-05-04T04:05Z
TLE epoch observation values (Epoch: 2026-05-04T04:05:43.378Z)
Latitude
6.59756°
Longitude
160.13783°
Altitude
995.373 km
Speed
7.338 km/s
True Right ascension
05h 34m 31s
True Declination
6° 33' 35"
Sunlit
Object was in daylight at epoch
Visualization orbit readout
Latitude
Unknown
Longitude
Unknown
Altitude
Unknown
Speed
Unknown
Apparent Right ascension
Unknown
Apparent Declination
Unknown
Sunlit
N/A
Visualization observer readout
Local Sidereal Time
19:02:43
Azimuth
Unknown
Elevation
Unknown
Doppler factor
Unknown
Orbital elements
Apogee altitude
1,002.947 km
Perigee altitude
912.116 km
Semi-major axis
7,335.669 km
Eccentricity
0.00619
Inclination
82.9336°
RAAN
264.4495°
Arg. of periapsis
309.5208°
True anomaly
223.75541°
Mean anomaly
224.2477°
Eccentric anomaly
224.00128°
Mean motion
3.45449 °/min
Orbital period
104.21 mins
BSTAR
0.00049169
Loading maneuver chart data...
Computing Atmospheric mass density...
Loading historical data...
Loading historical data...
Loading historical data...
Loading historical data...
Loading historical data...
Loading historical data...
Loading historical data...

Documentation

Showing up to 5 results
|